This is the latest recevied weather packets stored in our database for station/object KC3BAN-3. If no packets are shown the sender has not sent any weather packets the latest 10 day(s).
| Time | Temp. | Humidity | Pressure | Rain* | Wind** | Luminosity | Snow |
|---|---|---|---|---|---|---|---|
| 1788580296 | 28.33° C | 73% | 1010.4 hPa | 0 mm | - | - | - |
| 1788580120 | 28.89° C | 71% | 1010.4 hPa | 0 mm | - | - | - |
| 1788579696 | 28.89° C | 71% | 1010.6 hPa | 0 mm | - | - | - |
| 1788579393 | 28.33° C | 71% | 1010.8 hPa | 0 mm | - | - | - |
| 1788579093 | 28.33° C | 77% | 1010.8 hPa | 0 mm | - | - | - |
| 1788578793 | 28.33° C | 76% | 1010.8 hPa | 0 mm | - | - | - |
| 1788578625 | 27.78° C | 77% | 1010.8 hPa | 0 mm | - | - | - |
| 1788578195 | 27.78° C | 79% | 1011.3 hPa | 0 mm | - | - | - |
| 1788577895 | 27.22° C | 81% | 1011.3 hPa | 0 mm | - | - | - |
| 1788577594 | 27.22° C | 82% | 1011.2 hPa | 0 mm | - | - | - |
| 1788577295 | 27.22° C | 82% | 1011.4 hPa | 0 mm | - | - | - |
| 1788577125 | 27.22° C | 80% | 1011.9 hPa | 0 mm | - | - | - |
| 1788576693 | 27.22° C | 79% | 1012.1 hPa | 0 mm | - | - | - |
| 1788576395 | 26.67° C | 83% | 1012.3 hPa | 0 mm | - | - | - |
| 1788576094 | 26.11° C | 85% | 1012.3 hPa | 0 mm | - | - | - |
| 1788575793 | 25.56° C | 86% | 1012.6 hPa | 0 mm | - | - | - |
| 1788575493 | 25.56° C | 87% | 1012.7 hPa | 0 mm | - | - | - |
| 1788575196 | 25.56° C | 88% | 1013.1 hPa | 0 mm | - | - | - |
| 1788574897 | 25.56° C | 87% | 1013.2 hPa | 0 mm | - | - | - |
| 1788574723 | 26.11° C | 87% | 1013.4 hPa | 0 mm | - | - | - |
| 1788574304 | 26.11° C | 86% | 1013.6 hPa | 0 mm | - | - | - |
| 1788573996 | 26.11° C | 87% | 1013.6 hPa | 0 mm | - | - | - |
| 1788573696 | 26.11° C | 87% | 1013.7 hPa | 0 mm | - | - | - |
| 1788573397 | 26.11° C | 87% | 1013.6 hPa | 0 mm | - | - | - |
| 1788573099 | 26.11° C | 86% | 1013.7 hPa | 0 mm | - | - | - |
* Rain latest hour (hover to see other rain measurements)
** Current wind speed in m/s (hover to see current wind gust speed)